Weather History for Fort Lauderdale, FL

Change the Weather History Date:

Friday, February 22, 2013

  Actual Average Record
Temperature  
Mean Temperature 76 °F -  
Max Temperature 80 °F 79 °F 87 °F (2008)
Min Temperature 71 °F 61 °F 36 °F (1977)
Cooling Degree Days 10    
Growing Degree Days 26 (Base 50)    
Moisture  
Dew Point 68 °F    
Average Humidity 78    
Maximum Humidity 87    
Minimum Humidity 66    
Precipitation  
Precipitation 0.00 in - - ()
Sea Level Pressure  
Sea Level Pressure 30.07 in    
Wind  
Wind Speed 11 mph (SE)    
Max Wind Speed 17 mph    
Max Gust Speed 23 mph    
Visibility 10 miles    
Events      
Averages and records for this station are not official NWS values.
T = Trace of Precipitation, MM = Missing Value Source: NWS Daily Summary

Daily Weather History Graph

Daily Weather History Graph

Search for Another Location

Airport:

Trip Planner

Search our weather history database for the weather conditions in past years. The results will help you decide how hot, cold, wet, or windy it might be!

Date:

Astronomy

Feb. 22, 2013 Rise Set
Actual Time 6:50 AM EST 6:18 PM EST
Civil Twilight 6:27 AM EST 6:41 PM EST
Nautical Twilight 6:00 AM EST 7:08 PM EST
Astronomical Twilight 5:33 AM EST 7:35 PM EST
Moon 3:38 PM EST (2/22) 4:22 AM EST (2/22)
Length of Visible Light 12h 14m
Length of Day
11h 27m
Waxing Gibbous, 90% of the Moon is Illuminated
Feb 22
Waxing Gibbous
Feb 25
Full
Mar 4
Last Quarter
Mar 11
New
Mar 19
First Quarter

Hourly Weather History & Observations

Time (EST) Temp. Heat Index Dew Point Humidity Pressure Visibility Wind Dir Wind Speed Gust Speed Precip Events Conditions
12:53 AM 72.0 °F - 66.0 °F 81% 30.06 in 10.0 mi ESE 8.1 mph - N/A   Partly Cloudy
1:53 AM 71.1 °F - 66.9 °F 87% 30.05 in 10.0 mi ESE 9.2 mph - N/A   Partly Cloudy
2:53 AM 72.0 °F - 66.9 °F 84% 30.04 in 10.0 mi ESE 10.4 mph - N/A   Scattered Clouds
3:53 AM 72.0 °F - 68.0 °F 87% 30.03 in 10.0 mi ESE 9.2 mph - N/A   Scattered Clouds
4:53 AM 72.0 °F - 68.0 °F 87% 30.04 in 10.0 mi ESE 8.1 mph - N/A   Clear
5:53 AM 73.0 °F - 68.0 °F 84% 30.06 in 10.0 mi ESE 9.2 mph - N/A   Scattered Clouds
6:02 AM 73.4 °F - 68.0 °F 83% 30.05 in 10.0 mi ESE 10.4 mph - N/A   Mostly Cloudy
6:19 AM 73.4 °F - 68.0 °F 83% 30.06 in 10.0 mi ESE 10.4 mph - N/A   Mostly Cloudy
6:53 AM 73.0 °F - 68.0 °F 84% 30.08 in 10.0 mi SE 8.1 mph - N/A   Clear
7:53 AM 73.9 °F - 69.1 °F 85% 30.09 in 10.0 mi ESE 9.2 mph - N/A   Partly Cloudy
8:53 AM 75.9 °F - 68.0 °F 76% 30.10 in 10.0 mi ESE 17.3 mph 20.7 mph N/A   Partly Cloudy
9:53 AM 78.1 °F - 68.0 °F 71% 30.11 in 10.0 mi SE 16.1 mph 23.0 mph N/A   Scattered Clouds
10:53 AM 80.1 °F 82.7 °F 68.0 °F 67% 30.12 in 10.0 mi SE 13.8 mph 20.7 mph N/A   Scattered Clouds
11:53 AM 80.1 °F 82.7 °F 68.0 °F 67% 30.11 in 10.0 mi SE 15.0 mph - N/A   Scattered Clouds
12:00 PM 78.8 °F - 68.0 °F 69% 30.10 in 10.0 mi SE 17.3 mph - N/A   Overcast
12:12 PM 78.8 °F - 68.0 °F 69% 30.09 in 10.0 mi SE 13.8 mph 21.9 mph N/A   Scattered Clouds
12:53 PM 80.1 °F 82.7 °F 68.0 °F 67% 30.08 in 10.0 mi SE 15.0 mph 23.0 mph N/A   Scattered Clouds
1:53 PM 80.1 °F 82.7 °F 68.0 °F 67% 30.06 in 10.0 mi SSE 16.1 mph 23.0 mph N/A   Scattered Clouds
2:53 PM 79.0 °F - 68.0 °F 69% 30.06 in 10.0 mi SE 13.8 mph 20.7 mph N/A   Mostly Cloudy
3:53 PM 79.0 °F - 66.9 °F 66% 30.05 in 10.0 mi SE 13.8 mph 23.0 mph N/A   Scattered Clouds
4:53 PM 78.1 °F - 68.0 °F 71% 30.05 in 10.0 mi SE 10.4 mph - N/A   Scattered Clouds
5:53 PM 75.9 °F - 68.0 °F 76% 30.06 in 10.0 mi SE 11.5 mph - N/A   Scattered Clouds
6:53 PM 75.0 °F - 69.1 °F 82% 30.07 in 10.0 mi ESE 10.4 mph - N/A   Scattered Clouds
7:53 PM 75.0 °F - 69.1 °F 82% 30.07 in 10.0 mi ESE 10.4 mph - N/A   Scattered Clouds
8:53 PM 73.9 °F - 69.1 °F 85% 30.08 in 10.0 mi ESE 13.8 mph - N/A   Scattered Clouds
9:53 PM 73.9 °F - 69.1 °F 85% 30.09 in 10.0 mi ESE 12.7 mph - N/A   Clear
10:53 PM 73.0 °F - 68.0 °F 84% 30.09 in 10.0 mi ESE 12.7 mph - N/A   Clear
11:53 PM 73.0 °F - 68.0 °F 84% 30.07 in 10.0 mi ESE 13.8 mph 20.7 mph N/A   Clear